Regional Weather Roundup
Issued by NWS

Home | Current Version | Previous Version | Text Only | Print | Product List | Glossary On
Versions: 1 2 3 4 5 6 7 8 9 10 11 12 13 14 15 16 17 18 19 20 21 22 23 24 25 26 27 28 29 30 31 32 33 34 35 36 37 38 39 40 41 42 43 44 45 46 47 48 49 50
190
ASUS43 KMKX 251600
RWRWI

WISCONSIN REGIONAL WEATHER ROUNDUP
NATIONAL WEATHER SERVICE MILWAUKEE/SULLIVAN WI
1100 AM CDT SUN SEP 25 2016

NOTE: "FAIR" INDICATES FEW OR NO CLOUDS BELOW 12,000 FEET WITH NO
SIGNIFICANT WEATHER AND/OR OBSTRUCTIONS TO VISIBILITY.

WIZ001-002-006>008-014>016-023>028-251700-
NORTHWEST WISCONSIN

CITY           SKY/WX    TMP DP  RH WIND       PRES   REMARKS
SUPERIOR ARPT  LGT RAIN  66  66 100 SW7       29.80F
ASHLAND        CLOUDY    65  62  90 S7        29.84F
HAYWARD        LGT RAIN  64  62  93 S10G20    29.85F FOG
SIREN          CLOUDY    62  60  94 S7        29.87R
CUMBERLAND     LGT RAIN  63  61  94 W13       29.89R
RICE LAKE      HVY RAIN  65  63  94 CALM      29.89S
CHETEK         NOT AVBL
LADYSMITH      CLOUDY    64  63  94 SE9       29.91F FOG
EAU CLAIRE     NOT AVBL
MENOMONIE      RAIN      67  66  99 SW16      29.90R
NEW RICHMOND   MOSUNNY   63  62  97 SW9       29.89F
OSCEOLA        CLOUDY    65  59  82 SW9       29.91S
$$

WIZ003>005-009-010-017-018-251700-
NORTH CENTRAL WISCONSIN

CITY           SKY/WX    TMP DP  RH WIND       PRES   REMARKS
MANITOWISH WTR NOT AVBL
ARBOR VITAE    CLOUDY    62  61  96 S8        29.95F FOG
WOODRUFF       CLOUDY    62  61  96 S8        29.95F FOG
RHINELANDER    CLOUDY    62  62 100 SE9       29.97F
EAGLE RIVER    HVY RAIN  61  61 100 S8        29.98R
LAND O LAKES   RAIN      62  60  94 S7        30.00R
PHILLIPS       CLOUDY    61  61 100 S12G17    29.92F FOG
TOMAHAWK       CLOUDY    61  60  96 SE3       29.96F FOG
MEDFORD        RAIN     N/A N/A N/A S9        29.95F
MERRILL        LGT RAIN  62  62 100 SE7       29.97F
$$

WIZ029-030-035-036-043>047-251700-
CENTRAL WISCONSIN

CITY           SKY/WX    TMP DP  RH WIND       PRES   REMARKS
WAUSAU         CLOUDY    63  61  93 SE6       29.96R FOG
MOSINEE        CLOUDY    63  63 100 S6        29.98F FOG
MARSHFIELD     RAIN      66  63  90 S10       29.95F FOG
STEVENS POINT  HVY RAIN  64  63  99 SE5       29.96F
WAUPACA        PTSUNNY   73  67  81 SE10      29.98F
WAUTOMA        CLOUDY    73  66  78 S10       29.97F
WISC RAPIDS    LGT RAIN  68  65  90 SW3       29.97S
CAMP DOUGLAS   NOT AVBL
$$

WIZ011>013-019>022-031-037>040-048>050-251700-
NORTHEAST WISCONSIN

CITY           SKY/WX    TMP DP  RH WIND       PRES   REMARKS
ANTIGO         RAIN      60  60 100 S7G16     30.01R
SHAWANO        CLOUDY    71  64  80 S9        29.99F
OCONTO         NOT AVBL
STURGEON BAY   CLOUDY    67  62  84 SE17G25   30.03F
GREEN BAY      CLOUDY    70  66  87 SE16      30.00F
MANITOWOC      NOT AVBL
APPLETON       PTSUNNY   70  63  78 SE16      29.99F
CLINTONVILLE   NOT AVBL
OSHKOSH        CLOUDY    74  65  73 S14G21    29.99F
$$

WIZ032>034-041-042-053>061-251700-
SOUTHWEST WISCONSIN

CITY           SKY/WX    TMP DP  RH WIND       PRES   REMARKS
LA CROSSE      CLOUDY    70  67  90 S10       29.92F FOG
SPARTA         CLOUDY    68  66  93 S8        29.95S
VIROQUA        CLOUDY    68  67  97 S7        29.97F
BOSCOBEL       PTSUNNY   76  67  73 SW7       29.96S
PRAIRIE DU CHI CLOUDY    73  66  79 S7        29.95F
PLATTEVILLE    PTSUNNY   73  70  88 S10G17    30.00S
$$

WIZ056-057-062-063-064-067-068-251700-
SOUTH CENTRAL WISCONSIN

CITY           SKY/WX    TMP DP  RH WIND       PRES   REMARKS
REEDSBURG      NOT AVBL
BARABOO/DELLS  PTSUNNY   73  65  76 S15       29.96F
LONE ROCK      LGT RAIN  75  69  81 SW6       29.96S
MINERAL POINT  CLOUDY    73  70  88 S10G16    30.00R
MADISON        CLOUDY    75  67  76 S13       29.98F
MIDDLETON      CLOUDY    76  69  79 S13       29.99F
WATERTOWN      MOSUNNY   72  67  85 SE7       30.02F
MONROE         SUNNY     73  68  83 S13       30.00F
JANESVILLE     PTSUNNY   75  66  73 SE12      30.01S
$$

WIZ051-052-058>065-066-070>072-251700-
SOUTHEAST WISCONSIN

CITY           SKY/WX    TMP DP  RH WIND       PRES   REMARKS
MILWAUKEE      PTSUNNY   72  62  71 S12       30.05F
WAUKESHA       SUNNY     72  63  73 SE12      30.04F
MILWAUKEE/TIMM NOT AVBL
RACINE         SUNNY     70  60  70 SE17G23   30.07F
BURLINGTON     SUNNY     73  62  69 SE7       30.04F
KENOSHA        SUNNY     71  62  73 S9        30.05F
FOND DU LAC    CLOUDY    74  65  73 S15       30.00F
SHEBOYGAN      PTSUNNY   70  62  76 S18G25    30.04F
WEST BEND      CLOUDY    70  63  78 SE10      30.04F
JUNEAU         MOSUNNY   71  65  80 SE12      30.03F
$$

LSZ147-162-251700-
LAKE SUPERIOR

STATION/POSITION TIME  TEMP    WIND        PRES    WAVE
                       AIR SEA DIR/SP/G            HT/PER
                 (UTC) (F)     (DEG/KT/KT) (MB)    (FT/S)
W MID LAKE BUOY  1450   63 62  160/ 10/ 12 1011.5F   2/ 4
DEVILS ISLAND    1500   63     150/  6/ 10 1010.6F
SAXON HARBOR     1540   67     180/  9/ 16 1010.8F
$$

LMZ867-665-643>646-251700-
LAKE MICHIGAN

STATION/POSITION TIME  TEMP    WIND        PRES    WAVE
                       AIR SEA DIR/SP/G            HT/PER
                 (UTC) (F)     (DEG/KT/KT) (MB)    (FT/S)
CHAMBERS ISLAND  1500   66     140/  5/ 11 1016.9F
S GREEN BAY BUOY 1500   67 66  170/ 17/ 21 1016.3F
N MID LAKE BUOY  1450   63 67  170/ 17/ 21 1018.8S   4/ 5
NORTHPORT PIER   1500   65     150/ 14/ 20 1017.9F
SISTER BAY       1538   66     180/ 18/ 28   N/A
KEWAUNEE LAKESHO 1500   65     160/ 17/ 20 1017.4F
SHEBOYGAN LAKESH 1500   63     160/ 12/ 13 1017.7F
PORT WASHINGTON  1500   65     170/  5/  7 1018.6F
ATWATER BUOY     1500   63 55  160/ 12/ 16 1018.0F
MILWAUKEE LAKESH 1510   64     150/ 15/ 17   N/A
S MID LAKE BUOY  1450   67 72  140/ 19/ 23 1018.2F   5/ 5
KENOSHA   LAKESH 1500   65     170/ 14/ 16 1017.9S
$$

TC  - TEMPERATURE IN CELSIUS
VSB - VISIBILITY IN STATUTE MILES
WCI - WIND CHILL INDEX
HX  - HEAT INDEX





USA.gov is the U.S. government's official web portal to all federal, state and local government web resources and services.